[[{"header":{"parameterUnit":"m.s-1","parameterCategory":1,"la1":30.2991,"la2":30.254,"lo1":-89.0895,"lo2":-89.0444,"dy":0.0017,"dx":0.0017,"nx":28,"ny":28,"refTime":"2024-10-06T09:00:00:Z","depth":0,"parameterNumber":2,"parameterNumberName":"U-component_of_WINDS"},"data":[0,0,0,0,0,0,0,0,0,0,0,0,0,0,0,0,0,0,0,0,0,0,0,0,0,0,0,0,0,0,0,0,0,0,0,0,0,0,0,0,0,0,0,0,0,0,0,0,0,0,0,0,0,0,0,0,0,0,-4.4344,-4.4345,0,-4.4448,-4.445,-4.4451,-4.4404,-4.4401,-4.4399,-4.4396,-4.45,-4.4505,-4.451,0,0,0,0,0,0,0,0,0,0,0,0,0,-4.4099,-4.4104,-4.4343,-4.4345,-4.4346,-4.4448,-4.445,-4.4451,-4.4404,-4.4401,-4.4398,-4.4395,-4.4498,-4.4504,-4.451,0,0,0,0,0,0,0,0,0,0,0,0,0,-4.4204,-4.4105,-4.4343,-4.4335,-4.4335,-4.4448,-4.445,-4.4451,-4.4405,-4.4401,-4.4397,-4.4393,-4.4496,-4.4503,-4.4511,-4.4636,0,0,-4.4535,-4.4538,0,0,0,0,0,0,0,0,-4.4199,-4.4213,-4.4335,-4.4336,-4.4336,-4.4409,-4.4401,-4.4513,-4.4406,-4.4378,-4.4396,-4.4392,-4.4472,-4.4482,-4.451,-4.4641,-4.4646,-4.4535,-4.454,-4.4543,-4.4546,0,0,0,0,0,0,0,-4.4191,-4.4209,-4.4385,-4.4337,-4.4338,-4.4325,-4.4336,-4.4422,-4.4446,-4.438,-4.4377,-4.4391,-4.4472,-4.4502,-4.4512,-4.4647,-4.4535,-4.4542,-4.4547,-4.455,-4.4888,-4.4892,0,0,0,0,0,0,-4.4185,-4.4203,-4.4381,-4.4388,-4.4257,-4.4333,-4.4345,-4.439,-4.4445,-4.4449,-4.4394,-4.4388,-4.4491,-4.4503,-4.4515,-4.4667,-4.4543,-4.4551,-4.4555,-4.4883,-4.4889,-4.4893,0,0,0,0,0,0,-4.418,-4.4201,-4.4377,-4.4295,-4.4316,-4.4341,-4.4392,-4.4394,-4.4424,-4.4455,-4.4458,-4.4421,-4.4489,-4.4504,-4.4607,-4.4669,-4.4554,-4.4561,-4.4878,-4.4885,-4.4891,-4.497,0,0,0,0,0,0,-4.4173,-4.4199,-4.4248,-4.4296,-4.4321,-4.4469,-4.4396,-4.4399,-4.4438,-4.4432,-4.4481,-4.4486,-4.4487,-4.4596,-4.4615,-4.4678,-4.4567,-4.4873,-4.4881,-4.4889,-4.4962,-4.4978,-4.4992,0,0,0,0,0,-4.4164,-4.4265,-4.4251,-4.4273,-4.4382,-4.4472,-4.4486,-4.4487,-4.4443,-4.4492,-4.4512,-4.4484,-4.466,-4.4607,-4.4628,-4.4694,-4.4869,-4.4879,-4.4888,-4.4955,-4.4975,-4.4992,0,0,0,0,0,0,-4.4222,-4.4271,-4.4256,-4.4376,-4.442,-4.4464,-4.4526,-4.4508,-4.4564,-4.4556,-4.4552,-4.4564,-4.4671,-4.4692,-4.4633,-4.4819,-4.4757,-4.4772,-4.4801,-4.482,-4.4835,-4.4827,-4.4574,0,0,0,0,0,-4.4249,-4.4319,-4.4358,-4.4459,-4.4483,-4.4501,-4.454,-4.4536,-4.4582,-4.46,-4.4627,-4.4671,-4.4737,-4.4779,-4.4841,-4.4964,-4.4975,-4.502,-4.5036,-4.5048,-4.506,-4.5128,-4.5149,-4.4925,-4.4925,-4.4925,0,0,-4.4305,-4.434,-4.4384,-4.4472,-4.4506,-4.4578,-4.4517,-4.4595,-4.4648,-4.4611,-4.4711,-4.4732,-4.4781,-4.4895,-4.4947,-4.4917,-4.5125,-4.506,-4.507,-4.5076,-4.514,-4.5161,-4.518,-4.4932,-4.4931,-4.493,0,0,-4.4443,-4.4477,-4.4566,-4.4602,-4.4656,-4.4667,-4.4689,-4.4736,-4.4749,-4.4849,-4.4823,-4.4886,-4.4998,-4.5034,-4.5067,-4.5221,-4.5198,-4.5241,-4.5321,-4.5387,-4.5404,-4.542,-4.5475,-4.5495,-4.5253,-4.5254,-4.5254,0,-4.4505,-4.4614,-4.4614,-4.4695,-4.4734,-4.4706,-4.4796,-4.4831,-4.4901,-4.4928,-4.4894,-4.5035,-4.5066,-4.5188,-4.5226,-4.5254,-4.5278,-4.5235,-4.5402,-4.5418,-4.5432,-4.5485,-4.5506,-4.5259,-4.5258,-4.5258,-4.5257,0,-4.4688,-4.4764,-4.4829,-4.49,-4.4946,-4.5031,-4.5043,-4.509,-4.5083,-4.5097,-4.52,-4.5236,-4.5305,-4.5334,-4.5326,-4.5456,-4.5435,-4.5402,-4.534,-4.5459,-4.5508,-4.5528,-4.5266,-4.5264,-4.5262,-4.5261,0,0,-4.4865,-4.4936,-4.496,-4.4992,-4.5049,-4.5107,-4.5191,-4.526,-4.53,-4.5349,-4.5419,-4.5515,-4.5485,-4.5523,-4.552,-4.5578,-4.5698,-4.5537,-4.5538,-4.5566,-4.5843,-4.5868,-4.5891,-4.5683,-4.5687,-4.569,-4.5839,0,-4.5009,-4.5157,-4.516,-4.5295,-4.5365,-4.534,-4.5413,-4.5455,-4.5471,-4.5532,-4.5549,-4.5618,-4.5572,-4.5595,-4.5651,-4.5671,-4.5753,-4.5661,-4.5747,-4.575,-4.5736,-4.5917,-4.5943,-4.6082,-4.5858,-4.5861,-4.5863,0,-4.5195,-4.5253,-4.5396,-4.5444,-4.5474,-4.5539,-4.5603,-4.5662,-4.5709,-4.5717,-4.576,-4.5748,-4.5833,-4.5769,-4.5885,-4.5822,-4.5857,-4.5873,-4.5878,-4.5886,-4.5814,-4.593,-4.6126,-4.6147,-4.5894,-4.5891,-4.5889,0,-4.5311,-4.5424,-4.5525,-4.5553,-4.5611,-4.5658,-4.5684,-4.5728,-4.577,-4.5825,-4.5852,-4.5916,-4.5951,-4.6,-4.6006,-4.5959,-4.6123,-4.6059,-4.6131,-4.6132,-4.6167,-4.6165,-4.6372,-4.619,-4.619,-4.6189,-4.6189,0,-4.5471,-4.556,-4.5578,-4.5639,-4.5738,-4.574,-4.5837,-4.5859,-4.5899,-4.5964,-4.5945,-4.6006,-4.601,-4.6073,-4.6077,-4.6173,-4.6189,-4.6197,-4.6197,-4.6199,-4.6198,-4.6222,-4.6213,-4.6195,-4.6193,-4.6192,-4.6191,0,-4.5617,-4.5633,-4.574,-4.5788,-4.5802,-4.5872,-4.5912,-4.597,-4.5985,-4.6068,-4.6087,-4.611,-4.6183,-4.6194,-4.6278,-4.6282,-4.6397,-4.6387,-4.6381,-4.638,-4.6452,-4.6445,-4.6682,-4.6713,-4.651,-4.6512,-4.6514,0,-4.5718,-4.5786,-4.5841,-4.5884,-4.5913,-4.5983,-4.6025,-4.603,-4.6075,-4.6135,-4.6187,-4.6258,-4.6315,-4.6433,-4.6456,-4.6521,-4.6513,-4.6591,-4.6522,-4.6522,-4.6514,-4.651,-4.6517,-4.6604,-4.6607,-4.6608,-4.661,0,-4.5896,-4.5901,-4.5964,-4.6031,-4.6083,-4.6135,-4.6184,-4.622,-4.6231,-4.6282,-4.6358,-4.6402,-4.649,-4.6561,-4.6626,-4.6651,-4.6633,-4.6632,-4.6652,-4.6654,-4.6649,-4.6653,-4.6418,-4.6626,-4.6624,-4.6623,-4.6622,-4.6622,-4.6023,-4.6082,-4.6131,-4.6202,-4.624,-4.6287,-4.6344,-4.6367,-4.643,-4.6503,-4.6502,-4.6584,-4.663,-4.6715,-4.6746,-4.681,-4.6784,-4.6813,-4.6821,-4.6828,-4.6835,-4.6639,-4.6822,-4.6821,-4.6821,-4.682,-4.682,0,-4.62,-4.623,-4.6296,-4.6366,-4.6422,-4.6402,-4.6455,-4.6503,-4.6577,-4.6622,-4.6679,-4.6766,-4.6835,-4.6864,-4.6932,-4.6978,-4.6971,-4.6995,-4.6992,-4.6998,-4.6854,-4.683,-4.7,-4.7,-4.7,-4.6999,-4.6999,-4.6999,-4.6299,-4.6399,-4.6409,-4.6528,-4.6557,-4.6639,-4.6671,-4.6714,-4.675,-4.6849,-4.6906,-4.6926,-4.6965,-4.7035,-4.7097,-4.7104,-4.713,-4.7158,-4.7161,-4.7026,-4.7008,-4.6991,-4.6968,-4.7164,-4.7164,-4.73,-4.7301,-4.7302]},{"header":{"parameterUnit":"m.s-1","parameterCategory":1,"la1":30.2991,"la2":30.254,"lo1":-89.0895,"lo2":-89.0444,"dy":0.0017,"dx":0.0017,"nx":28,"ny":28,"refTime":"2024-10-06T09:00:00:Z","depth":0,"parameterNumber":3,"parameterNumberName":"V-component_of_WINDS"},"data":[0,0,0,0,0,0,0,0,0,0,0,0,0,0,0,0,0,0,0,0,0,0,0,0,0,0,0,0,0,0,0,0,0,0,0,0,0,0,0,0,0,0,0,0,0,0,0,0,0,0,0,0,0,0,0,0,0,0,-4.0849,-4.085,0,-4.0936,-4.0937,-4.0938,-4.0902,-4.0899,-4.0897,-4.0895,-4.0981,-4.0985,-4.0989,0,0,0,0,0,0,0,0,0,0,0,0,0,-4.0648,-4.0652,-4.0849,-4.085,-4.0851,-4.0935,-4.0937,-4.0938,-4.0902,-4.0899,-4.0897,-4.0895,-4.0979,-4.0984,-4.0989,0,0,0,0,0,0,0,0,0,0,0,0,0,-4.0735,-4.0653,-4.0848,-4.0843,-4.0844,-4.0935,-4.0937,-4.0938,-4.0902,-4.0899,-4.0896,-4.0893,-4.0978,-4.0984,-4.099,-4.1091,0,0,-4.1009,-4.1012,0,0,0,0,0,0,0,0,-4.073,-4.0742,-4.0843,-4.0844,-4.0844,-4.0905,-4.0897,-4.0989,-4.0903,-4.088,-4.0895,-4.0892,-4.0958,-4.0966,-4.0989,-4.1095,-4.1099,-4.101,-4.1014,-4.1016,-4.1018,0,0,0,0,0,0,0,-4.0724,-4.0738,-4.0883,-4.0844,-4.0845,-4.0835,-4.0844,-4.0914,-4.0935,-4.0882,-4.0879,-4.089,-4.0958,-4.0983,-4.099,-4.11,-4.101,-4.1015,-4.1019,-4.1022,-4.1293,-4.1296,0,0,0,0,0,0,-4.0718,-4.0733,-4.088,-4.0885,-4.0778,-4.0841,-4.0851,-4.0888,-4.0934,-4.0938,-4.0893,-4.0888,-4.0973,-4.0983,-4.0993,-4.1114,-4.1016,-4.1022,-4.1026,-4.129,-4.1294,-4.1297,0,0,0,0,0,0,-4.0714,-4.0732,-4.0877,-4.0809,-4.0827,-4.0848,-4.089,-4.0892,-4.0917,-4.0943,-4.0946,-4.0915,-4.0971,-4.0984,-4.1067,-4.1116,-4.1025,-4.1031,-4.1286,-4.1291,-4.1296,-4.1357,0,0,0,0,0,0,-4.0708,-4.073,-4.077,-4.081,-4.083,-4.095,-4.0893,-4.0896,-4.0928,-4.0923,-4.0964,-4.0968,-4.097,-4.1058,-4.1073,-4.1123,-4.1036,-4.1281,-4.1288,-4.1294,-4.135,-4.1363,-4.1374,0,0,0,0,0,-4.0701,-4.0783,-4.0772,-4.079,-4.088,-4.0953,-4.0965,-4.0966,-4.0932,-4.0971,-4.0988,-4.0967,-4.1109,-4.1067,-4.1084,-4.1137,-4.1278,-4.1286,-4.1294,-4.1345,-4.1361,-4.1374,0,0,0,0,0,0,-4.0746,-4.0788,-4.0776,-4.0874,-4.091,-4.0947,-4.0997,-4.0983,-4.1029,-4.1022,-4.1021,-4.1031,-4.1116,-4.1135,-4.1087,-4.1236,-4.1188,-4.12,-4.1221,-4.1237,-4.1248,-4.1242,-4.1041,0,0,0,0,0,-4.0768,-4.0825,-4.0858,-4.094,-4.0959,-4.0975,-4.1007,-4.1005,-4.1043,-4.1058,-4.108,-4.1116,-4.1169,-4.1204,-4.1254,-4.1353,-4.1361,-4.1398,-4.141,-4.1419,-4.1429,-4.1483,-4.1499,-4.1323,-4.1323,-4.1323,0,0,-4.0812,-4.0842,-4.0878,-4.095,-4.0978,-4.1036,-4.0988,-4.1052,-4.1094,-4.1067,-4.1147,-4.1165,-4.1205,-4.1296,-4.1338,-4.1314,-4.148,-4.1429,-4.1437,-4.1441,-4.1492,-4.1509,-4.1524,-4.1328,-4.1327,-4.1326,0,0,-4.0922,-4.0951,-4.1023,-4.1053,-4.1097,-4.1107,-4.1124,-4.1163,-4.1175,-4.1255,-4.1236,-4.1286,-4.1377,-4.1406,-4.1433,-4.1555,-4.1537,-4.1572,-4.1634,-4.1686,-4.17,-4.1712,-4.1756,-4.1771,-4.1581,-4.1582,-4.1582,0,-4.0971,-4.106,-4.1061,-4.1127,-4.1159,-4.1138,-4.121,-4.1238,-4.1296,-4.1318,-4.1291,-4.1405,-4.143,-4.1528,-4.1558,-4.1581,-4.16,-4.1567,-4.1698,-4.1711,-4.1722,-4.1763,-4.178,-4.1585,-4.1585,-4.1585,-4.1584,0,-4.1118,-4.1179,-4.1231,-4.1289,-4.1327,-4.1395,-4.1406,-4.1444,-4.1439,-4.1452,-4.1533,-4.1564,-4.1619,-4.1642,-4.1638,-4.174,-4.1724,-4.1698,-4.1649,-4.1743,-4.1781,-4.1797,-4.1591,-4.159,-4.1588,-4.1587,0,0,-4.1258,-4.1317,-4.1336,-4.1362,-4.1409,-4.1456,-4.1523,-4.1579,-4.1611,-4.1651,-4.1707,-4.1785,-4.1761,-4.1792,-4.179,-4.1836,-4.193,-4.1804,-4.1805,-4.1826,-4.2044,-4.2064,-4.2082,-4.1919,-4.1922,-4.1924,-4.2041,0,-4.1372,-4.1491,-4.1495,-4.1603,-4.1659,-4.1641,-4.1699,-4.1734,-4.1747,-4.1796,-4.181,-4.1865,-4.183,-4.1848,-4.1893,-4.1909,-4.1974,-4.1901,-4.1969,-4.1972,-4.196,-4.2102,-4.2123,-4.2231,-4.2056,-4.2059,-4.206,0,-4.152,-4.1567,-4.1682,-4.1721,-4.1745,-4.1798,-4.1849,-4.1896,-4.1935,-4.1941,-4.1976,-4.1968,-4.2035,-4.1985,-4.2077,-4.2027,-4.2056,-4.2068,-4.2072,-4.2078,-4.2022,-4.2112,-4.2266,-4.2282,-4.2084,-4.2082,-4.2081,0,-4.1611,-4.1702,-4.1783,-4.1806,-4.1854,-4.1891,-4.1913,-4.1948,-4.1982,-4.2026,-4.2048,-4.2099,-4.2127,-4.2167,-4.2172,-4.2135,-4.2265,-4.2215,-4.2271,-4.2271,-4.2299,-4.2297,-4.246,-4.2318,-4.2318,-4.2317,-4.2317,0,-4.1737,-4.1808,-4.1824,-4.1874,-4.1952,-4.1955,-4.2032,-4.2051,-4.2083,-4.2134,-4.2121,-4.2169,-4.2174,-4.2223,-4.2228,-4.2303,-4.2316,-4.2323,-4.2323,-4.2324,-4.2323,-4.2342,-4.2334,-4.2322,-4.2321,-4.232,-4.2319,0,-4.1851,-4.1865,-4.1952,-4.1991,-4.2002,-4.2058,-4.2091,-4.2138,-4.215,-4.2216,-4.2231,-4.225,-4.2308,-4.2318,-4.2385,-4.2388,-4.2479,-4.2471,-4.2466,-4.2465,-4.2521,-4.2515,-4.2701,-4.2725,-4.2568,-4.2569,-4.2571,0,-4.1931,-4.1985,-4.2031,-4.2065,-4.2089,-4.2144,-4.2179,-4.2184,-4.222,-4.2268,-4.2309,-4.2366,-4.2412,-4.2505,-4.2524,-4.2576,-4.2569,-4.2631,-4.2576,-4.2576,-4.257,-4.2566,-4.2571,-4.2641,-4.2642,-4.2644,-4.2645,0,-4.2071,-4.2075,-4.2126,-4.218,-4.2222,-4.2264,-4.2303,-4.2332,-4.2342,-4.2383,-4.2443,-4.2478,-4.2548,-4.2605,-4.2656,-4.2676,-4.2663,-4.2662,-4.2678,-4.2679,-4.2674,-4.2677,-4.2494,-4.2657,-4.2656,-4.2655,-4.2655,-4.2654,-4.217,-4.2217,-4.2257,-4.2314,-4.2345,-4.2382,-4.2428,-4.2447,-4.2497,-4.2556,-4.2555,-4.2621,-4.2657,-4.2725,-4.275,-4.28,-4.278,-4.2803,-4.2809,-4.2814,-4.2819,-4.2666,-4.2809,-4.2809,-4.2809,-4.2808,-4.2808,0,-4.2308,-4.2333,-4.2386,-4.2443,-4.2487,-4.2472,-4.2515,-4.2553,-4.2611,-4.2648,-4.2694,-4.2762,-4.2817,-4.2841,-4.2894,-4.293,-4.2925,-4.2944,-4.2941,-4.2946,-4.2834,-4.2815,-4.2947,-4.2947,-4.2947,-4.2947,-4.2947,-4.2947,-4.2386,-4.2465,-4.2474,-4.2568,-4.2592,-4.2658,-4.2684,-4.2718,-4.2747,-4.2825,-4.2871,-4.2886,-4.2918,-4.2974,-4.3023,-4.3028,-4.3048,-4.307,-4.3073,-4.2968,-4.2954,-4.294,-4.2923,-4.3075,-4.3075,-4.318,-4.3181,-4.3182]}]]